Weather History for Greeley, CO

Change the Weather History Date:

Tuesday, May 21, 2013

  Actual Average Record
Temperature  
Mean Temperature 56 °F -  
Max Temperature 71 °F 71 °F 91 °F (2005)
Min Temperature 41 °F 44 °F 33 °F (2001)
Degree Days  
Heating Degree Days 9    
Growing Degree Days 6 (Base 50)    
Moisture  
Dew Point 32 °F    
Average Humidity 44    
Maximum Humidity 76    
Minimum Humidity 20    
Precipitation  
Precipitation 0.00 in - - ()
Sea Level Pressure  
Sea Level Pressure 29.97 in    
Wind  
Wind Speed 14 mph (North)    
Max Wind Speed 28 mph    
Max Gust Speed 36 mph    
Visibility 10 miles    
Events      
Averages and records for this station are not official NWS values.
T = Trace of Precipitation, MM = Missing Value Source: NWS Daily Summary

Daily Weather History Graph

Daily Weather History Graph

Search for Another Location

Airport:

Trip Planner

Search our weather history database for the weather conditions in past years. The results will help you decide how hot, cold, wet, or windy it might be!

Date:

Astronomy

May. 21, 2013 Rise Set
Actual Time 5:36 AM MDT 8:14 PM MDT
Civil Twilight 5:05 AM MDT 8:45 PM MDT
Nautical Twilight 4:26 AM MDT 9:25 PM MDT
Astronomical Twilight 3:41 AM MDT 10:09 PM MDT
Moon 4:29 PM MDT (5/21) 3:06 AM MDT (5/21)
Length of Visible Light 15h 40m
Length of Day
14h 37m
Waxing Gibbous, 84% of the Moon is Illuminated
May 21
Waxing Gibbous
May 24
Full
May 31
Last Quarter
Jun 8
New
Jun 16
First Quarter

Hourly Weather History & Observations

Time (MDT) Temp. Windchill Dew Point Humidity Pressure Visibility Wind Dir Wind Speed Gust Speed Precip Events Conditions
12:15 AM 46.4 °F 41.9 °F 35.6 °F 66% 30.01 in 10.0 mi NNW 9.2 mph - N/A   Overcast
12:35 AM 46.4 °F 41.9 °F 35.6 °F 66% 30.01 in 10.0 mi NNW 9.2 mph - N/A   Scattered Clouds
12:55 AM 46.4 °F 41.5 °F 33.8 °F 62% 30.01 in 10.0 mi NNW 10.4 mph - N/A   Clear
1:15 AM 44.6 °F 39.2 °F 33.8 °F 66% 30.01 in 10.0 mi North 10.4 mph - N/A   Partly Cloudy
1:35 AM 44.6 °F 40.2 °F 33.8 °F 66% 30.01 in 10.0 mi North 8.1 mph - N/A   Mostly Cloudy
1:55 AM 44.6 °F 40.2 °F 33.8 °F 66% 30.02 in 10.0 mi North 8.1 mph - N/A   Scattered Clouds
2:15 AM 44.6 °F 39.7 °F 33.8 °F 66% 30.01 in 10.0 mi North 9.2 mph - N/A   Partly Cloudy
2:35 AM 42.8 °F 38.0 °F 33.8 °F 70% 30.02 in 10.0 mi NNW 8.1 mph - N/A   Clear
2:55 AM 42.8 °F 38.0 °F 33.8 °F 70% 30.01 in 10.0 mi NNW 8.1 mph - N/A   Clear
3:15 AM 42.8 °F 37.5 °F 33.8 °F 70% 30.01 in 10.0 mi North 9.2 mph - N/A   Clear
3:35 AM 42.8 °F 37.0 °F 33.8 °F 70% 30.01 in 10.0 mi North 10.4 mph - N/A   Clear
3:55 AM 44.6 °F 39.2 °F 33.8 °F 66% 30.01 in 10.0 mi North 10.4 mph - N/A   Partly Cloudy
4:15 AM 44.6 °F 38.8 °F 33.8 °F 66% 30.01 in 10.0 mi North 11.5 mph - N/A   Clear
4:35 AM 44.6 °F 38.4 °F 33.8 °F 66% 30.02 in 10.0 mi North 12.7 mph - N/A   Clear
4:55 AM 42.8 °F 37.5 °F 33.8 °F 70% 30.03 in 10.0 mi North 9.2 mph - N/A   Clear
5:15 AM 42.8 °F 37.5 °F 33.8 °F 70% 30.03 in 10.0 mi North 9.2 mph - N/A   Clear
5:35 AM 41.0 °F 35.8 °F 33.8 °F 76% 30.03 in 10.0 mi NNW 8.1 mph - N/A   Clear
5:55 AM 42.8 °F 36.2 °F 33.8 °F 70% 30.03 in 10.0 mi NW 12.7 mph - N/A   Clear
6:15 AM 46.4 °F 41.1 °F 33.8 °F 62% 30.03 in 10.0 mi NW 11.5 mph - N/A   Clear
6:35 AM 46.4 °F 41.5 °F 33.8 °F 62% 30.04 in 10.0 mi NW 10.4 mph - N/A   Clear
6:55 AM 48.2 °F - 33.8 °F 58% 30.04 in 10.0 mi NW 11.5 mph - N/A   Clear
7:15 AM 50.0 °F - 33.8 °F 54% 30.05 in 10.0 mi NNW 11.5 mph - N/A   Clear
7:35 AM 51.8 °F - 33.8 °F 50% 30.05 in 10.0 mi North 12.7 mph 17.3 mph N/A   Clear
7:55 AM 53.6 °F - 33.8 °F 47% 30.05 in 10.0 mi NNW 16.1 mph - N/A   Clear
8:15 AM 55.4 °F - 33.8 °F 44% 30.04 in 10.0 mi NNW 20.7 mph 24.2 mph N/A   Scattered Clouds
8:35 AM 55.4 °F - 33.8 °F 44% 30.04 in 10.0 mi NNW 19.6 mph 26.5 mph N/A   Partly Cloudy
8:55 AM 57.2 °F - 33.8 °F 41% 30.04 in 10.0 mi North 18.4 mph 25.3 mph N/A   Clear
9:15 AM 57.2 °F - 33.8 °F 41% 30.04 in 10.0 mi NNW 19.6 mph 27.6 mph N/A   Clear
9:35 AM 59.0 °F - 33.8 °F 39% 30.03 in 10.0 mi NW 21.9 mph 27.6 mph N/A   Clear
9:55 AM 60.8 °F - 33.8 °F 36% 30.01 in 10.0 mi NNW 24.2 mph 29.9 mph N/A   Clear
10:35 AM 62.6 °F - 30.2 °F 30% 29.99 in 10.0 mi North 25.3 mph 34.5 mph N/A   Partly Cloudy
11:15 AM 64.4 °F - 32.0 °F 30% 29.98 in 10.0 mi NNW 26.5 mph 34.5 mph N/A   Clear
11:35 AM 64.4 °F - 30.2 °F 28% 29.97 in 10.0 mi NNW 26.5 mph 34.5 mph N/A   Clear
11:55 AM 64.4 °F - 30.2 °F 28% 29.96 in 10.0 mi NNW 27.6 mph 34.5 mph N/A   Clear
12:15 PM 66.2 °F - 30.2 °F 26% 29.95 in 10.0 mi NNW 23.0 mph 33.4 mph N/A   Partly Cloudy
12:35 PM 66.2 °F - 30.2 °F 26% 29.94 in 10.0 mi NNW 27.6 mph 34.5 mph N/A   Scattered Clouds
12:55 PM 66.2 °F - 30.2 °F 26% 29.93 in 10.0 mi NNW 26.5 mph 31.1 mph N/A   Mostly Cloudy
1:15 PM 66.2 °F - 30.2 °F 26% 29.93 in 10.0 mi NNW 23.0 mph 27.6 mph N/A   Mostly Cloudy
1:35 PM 68.0 °F - 28.4 °F 23% 29.92 in 10.0 mi NNW 24.2 mph 34.5 mph N/A   Partly Cloudy
1:55 PM 69.8 °F - 28.4 °F 21% 29.92 in 10.0 mi NW 20.7 mph 35.7 mph N/A   Clear
2:15 PM 69.8 °F - 30.2 °F 23% 29.91 in 10.0 mi NW 18.4 mph 31.1 mph N/A   Partly Cloudy
2:35 PM 71.6 °F - 30.2 °F 22% 29.90 in 10.0 mi WNW 21.9 mph 34.5 mph N/A   Partly Cloudy
2:55 PM 69.8 °F - 30.2 °F 23% 29.90 in 10.0 mi NW 20.7 mph 29.9 mph N/A   Mostly Cloudy
3:15 PM 69.8 °F - 30.2 °F 23% 29.89 in 10.0 mi WNW 19.6 mph 31.1 mph N/A   Overcast
3:35 PM 69.8 °F - 30.2 °F 23% 29.89 in 10.0 mi NNW 17.3 mph 31.1 mph N/A   Mostly Cloudy
3:55 PM 71.6 °F - 30.2 °F 22% 29.88 in 10.0 mi NNW 24.2 mph 29.9 mph N/A   Scattered Clouds
4:15 PM 71.6 °F - 30.2 °F 22% 29.88 in 10.0 mi NNW 18.4 mph 33.4 mph N/A   Clear
4:35 PM 71.6 °F - 28.4 °F 20% 29.87 in 10.0 mi NNW 19.6 mph 28.8 mph N/A   Partly Cloudy
4:55 PM 71.6 °F - 30.2 °F 22% 29.87 in 10.0 mi NNW 25.3 mph 31.1 mph N/A   Scattered Clouds
5:15 PM 71.6 °F - 28.4 °F 20% 29.87 in 10.0 mi NNW 21.9 mph 29.9 mph N/A   Partly Cloudy
5:35 PM 69.8 °F - 28.4 °F 21% 29.87 in 10.0 mi NNW 21.9 mph 31.1 mph N/A   Mostly Cloudy
5:55 PM 69.8 °F - 28.4 °F 21% 29.87 in 10.0 mi NNW 24.2 mph 32.2 mph N/A   Scattered Clouds
6:15 PM 69.8 °F - 26.6 °F 20% 29.86 in 10.0 mi North 25.3 mph 33.4 mph N/A   Partly Cloudy
6:35 PM 69.8 °F - 28.4 °F 21% 29.87 in 10.0 mi North 21.9 mph 31.1 mph N/A   Partly Cloudy
6:55 PM 68.0 °F - 26.6 °F 21% 29.87 in 10.0 mi North 19.6 mph 27.6 mph N/A   Scattered Clouds
7:15 PM 66.2 °F - 28.4 °F 24% 29.88 in 10.0 mi North 18.4 mph 27.6 mph N/A   Mostly Cloudy
7:35 PM 66.2 °F - 28.4 °F 24% 29.88 in 10.0 mi North 18.4 mph - N/A   Mostly Cloudy
7:55 PM 64.4 °F - 28.4 °F 26% 29.90 in 10.0 mi NE 15.0 mph 26.5 mph N/A   Mostly Cloudy
8:15 PM 60.8 °F - 30.2 °F 31% 29.91 in 10.0 mi NE 12.7 mph 19.6 mph N/A   Overcast
8:35 PM 59.0 °F - 32.0 °F 36% 29.93 in 10.0 mi ENE 13.8 mph - N/A   Scattered Clouds
8:55 PM 57.2 °F - 32.0 °F 38% 29.94 in 10.0 mi ENE 9.2 mph - N/A   Partly Cloudy
9:15 PM 55.4 °F - 33.8 °F 44% 29.96 in 10.0 mi East 8.1 mph - N/A   Mostly Cloudy
9:35 PM 53.6 °F - 33.8 °F 47% 29.97 in 10.0 mi ESE 6.9 mph - N/A   Mostly Cloudy
9:55 PM 51.8 °F - 33.8 °F 50% 29.97 in 10.0 mi ESE 9.2 mph - N/A   Partly Cloudy
10:15 PM 51.8 °F - 33.8 °F 50% 29.98 in 10.0 mi East 8.1 mph - N/A   Clear
10:35 PM 48.2 °F - 33.8 °F 58% 30.00 in 10.0 mi ENE 3.5 mph - N/A   Clear
10:55 PM 46.4 °F 42.9 °F 33.8 °F 62% 30.01 in 10.0 mi NE 6.9 mph - N/A   Clear
11:15 PM 46.4 °F 43.5 °F 32.0 °F 57% 30.01 in 10.0 mi NNE 5.8 mph - N/A   Clear
11:35 PM 46.4 °F - 32.0 °F 57% 30.02 in 10.0 mi Calm Calm - N/A   Clear
11:55 PM 46.4 °F - 32.0 °F 57% 30.02 in 10.0 mi Calm Calm - N/A   Clear